When you browse on this site, cookies collect data to enhance your experience and personalize the content and advertising you see.
Visit our Privacy Policy to learn more. By continuing to use the site, you agree to this use of cookies and data.
  • In Netherlands
  • List of Countries
  • For 7 days
  • Water Temperature
  • Satellite Maps
  • Weather Map
  • Weather Widgets
  • user-avatar
    Login

    Hourly Weather Dęblin

    Today, 25 April, Thursday

    Time Temperature Precipitation Wind Pressure Humidity
    00:00 +13°C° 0 mm 5 mps 753 mmHg 77%
    01:00 +12°C° 0 mm 4 mps 753 mmHg 76%
    02:00 +12°C° 0 mm 4 mps 752 mmHg 77%
    03:00 +12°C° 0 mm 4 mps 752 mmHg 79%
    04:00 +11°C° 0 mm 4 mps 752 mmHg 80%
    05:00 +13°C° 0 mm 5 mps 752 mmHg 76%
    06:00 +14°C° 0 mm 5 mps 752 mmHg 73%
    07:00 +15°C° 0 mm 6 mps 752 mmHg 69%
    08:00 +17°C° 0 mm 6 mps 752 mmHg 65%
    09:00 +20°C° 0 mm 6 mps 752 mmHg 61%
    10:00 +21°C° 0 mm 6 mps 752 mmHg 57%
    11:00 +22°C° 0 mm 6 mps 752 mmHg 55%
    12:00 +23°C° 0 mm 6 mps 751 mmHg 53%
    13:00 +24°C° 0 mm 6 mps 751 mmHg 50%
    14:00 +24°C° 0 mm 6 mps 751 mmHg 50%
    15:00 +25°C° 0 mm 5 mps 751 mmHg 50%
    16:00 +25°C° 0 mm 5 mps 751 mmHg 50%
    17:00 +22°C° 0 mm 4 mps 751 mmHg 55%
    18:00 +21°C° 0 mm 4 mps 751 mmHg 61%
    19:00 +19°C° 0 mm 3 mps 751 mmHg 67%
    20:00 +19°C° 0 mm 3 mps 751 mmHg 70%
    21:00 +18°C° 0 mm 3 mps 751 mmHg 73%
    22:00 +17°C° 0 mm 3 mps 751 mmHg 77%
    23:00 +17°C° 0 mm 3 mps 751 mmHg 78%

    Tomorrow, 26 April, Friday

    Time Temperature Precipitation Wind Pressure Humidity
    00:00 +16°C° 0 mm 2 mps 751 mmHg 79%
    01:00 +16°C° 0 mm 2 mps 751 mmHg 80%
    02:00 +15°C° 0 mm 2 mps 750 mmHg 82%
    03:00 +15°C° 0 mm 2 mps 750 mmHg 84%
    04:00 +14°C° 0 mm 2 mps 750 mmHg 86%
    05:00 +14°C° 0 mm 3 mps 749 mmHg 83%
    06:00 +17°C° 0 mm 4 mps 749 mmHg 79%
    07:00 +18°C° 0 mm 4 mps 749 mmHg 76%
    08:00 +20°C° 0 mm 5 mps 748 mmHg 69%
    09:00 +22°C° 0 mm 5 mps 748 mmHg 63%
    10:00 +23°C° 0 mm 5 mps 748 mmHg 56%
    11:00 +24°C° 0 mm 6 mps 747 mmHg 52%
    12:00 +26°C° 0 mm 6 mps 747 mmHg 48%
    13:00 +27°C° 0 mm 6 mps 747 mmHg 44%
    14:00 +27°C° 0 mm 5 mps 746 mmHg 43%
    15:00 +28°C° 0 mm 5 mps 746 mmHg 43%
    16:00 +28°C° 0 mm 4 mps 746 mmHg 43%
    17:00 +26°C° 0 mm 4 mps 746 mmHg 48%
    18:00 +25°C° 0 mm 4 mps 746 mmHg 52%
    19:00 +22°C° 0 mm 3 mps 746 mmHg 57%
    20:00 +22°C° 0 mm 3 mps 746 mmHg 58%
    21:00 +21°C° 0 mm 4 mps 745 mmHg 59%
    22:00 +21°C° 0 mm 4 mps 745 mmHg 59%
    23:00 +20°C° 0 mm 4 mps 745 mmHg 61%

    Day after tomorrow, 27 April, Saturday

    Time Temperature Precipitation Wind Pressure Humidity
    00:00 +19°C° 0 mm 4 mps 745 mmHg 62%
    01:00 +18°C° 0 mm 4 mps 745 mmHg 63%
    02:00 +18°C° 0 mm 4 mps 745 mmHg 66%
    03:00 +17°C° 0 mm 4 mps 745 mmHg 70%
    04:00 +17°C° 0 mm 4 mps 746 mmHg 73%
    05:00 +16°C° 0 mm 5 mps 746 mmHg 76%
    06:00 +16°C° 0 mm 5 mps 746 mmHg 79%
    07:00 +16°C° 0 mm 6 mps 747 mmHg 81%
    08:00 +17°C° 0 mm 6 mps 747 mmHg 76%
    09:00 +17°C° 0 mm 6 mps 747 mmHg 71%
    10:00 +19°C° 0 mm 5 mps 747 mmHg 66%
    11:00 +19°C° 0 mm 5 mps 748 mmHg 65%
    12:00 +19°C° 0 mm 5 mps 748 mmHg 64%
    13:00 +19°C° 0 mm 5 mps 748 mmHg 63%
    14:00 +19°C° 0 mm 5 mps 748 mmHg 65%
    15:00 +17°C° 0 mm 5 mps 748 mmHg 67%
    16:00 +17°C° 0 mm 4 mps 747 mmHg 69%
    17:00 +17°C° 0 mm 4 mps 747 mmHg 71%
    18:00 +16°C° 0 mm 3 mps 748 mmHg 73%
    19:00 +14°C° 0 mm 3 mps 748 mmHg 75%
    20:00 +14°C° 0.2 mm 3 mps 748 mmHg 77%
    21:00 +13°C° 0.2 mm 3 mps 748 mmHg 79%
    22:00 +13°C° 0.2 mm 3 mps 748 mmHg 81%
    23:00 +12°C° 0.9 mm 4 mps 748 mmHg 83%

    28 April, Sunday

    Time Temperature Precipitation Wind Pressure Humidity
    00:00 +12°C° 0.9 mm 4 mps 748 mmHg 86%
    01:00 +12°C° 0.9 mm 4 mps 748 mmHg 89%
    02:00 +11°C° 1.8 mm 4 mps 748 mmHg 90%
    03:00 +10°C° 1.8 mm 5 mps 748 mmHg 90%
    04:00 +10°C° 1.8 mm 5 mps 748 mmHg 90%
    05:00 +9°C° 1.3 mm 5 mps 748 mmHg 89%
    06:00 +9°C° 1.3 mm 5 mps 748 mmHg 87%
    07:00 +8°C° 1.3 mm 4 mps 748 mmHg 86%
    08:00 +9°C° 1.1 mm 5 mps 749 mmHg 86%
    09:00 +9°C° 1.1 mm 5 mps 749 mmHg 86%
    10:00 +9°C° 1.1 mm 5 mps 749 mmHg 86%
    11:00 +9°C° 1.8 mm 5 mps 749 mmHg 87%
    12:00 +9°C° 1.8 mm 5 mps 749 mmHg 88%
    13:00 +10°C° 1.8 mm 4 mps 749 mmHg 89%
    14:00 +9°C° 1.6 mm 5 mps 749 mmHg 89%
    15:00 +9°C° 1.6 mm 6 mps 749 mmHg 90%
    16:00 +9°C° 1.6 mm 6 mps 749 mmHg 90%
    17:00 +9°C° 0.8 mm 6 mps 749 mmHg 90%
    18:00 +9°C° 0.8 mm 6 mps 749 mmHg 91%
    19:00 +8°C° 0.8 mm 5 mps 749 mmHg 91%
    20:00 +9°C° 0.3 mm 5 mps 749 mmHg 92%
    21:00 +9°C° 0.3 mm 5 mps 749 mmHg 94%
    22:00 +10°C° 0.3 mm 4 mps 749 mmHg 95%
    23:00 +11°C° 1 mm 4 mps 749 mmHg 95%

    29 April, Monday

    Time Temperature Precipitation Wind Pressure Humidity
    00:00 +11°C° 1 mm 4 mps 748 mmHg 96%
    01:00 +11°C° 1 mm 4 mps 748 mmHg 97%
    02:00 +11°C° 0.8 mm 4 mps 748 mmHg 97%
    03:00 +11°C° 0.8 mm 4 mps 748 mmHg 96%
    04:00 +12°C° 0.8 mm 4 mps 748 mmHg 96%
    05:00 +12°C° 0.3 mm 4 mps 748 mmHg 95%
    06:00 +12°C° 0.3 mm 5 mps 748 mmHg 93%
    07:00 +12°C° 0.3 mm 5 mps 748 mmHg 91%
    08:00 +11°C° 0.1 mm 6 mps 749 mmHg 90%
    09:00 +10°C° 0.1 mm 6 mps 749 mmHg 89%
    10:00 +10°C° 0.1 mm 7 mps 749 mmHg 88%
    11:00 +9°C° 0.5 mm 7 mps 749 mmHg 89%
    12:00 +6°C° 0.5 mm 7 mps 749 mmHg 90%
    13:00 +5°C° 0.5 mm 7 mps 749 mmHg 91%
    14:00 +7°C° 1.2 mm 6 mps 749 mmHg 90%
    15:00 +7°C° 1.2 mm 6 mps 749 mmHg 90%
    16:00 +7°C° 1.2 mm 5 mps 749 mmHg 89%
    17:00 +7°C° 0.1 mm 5 mps 750 mmHg 88%
    18:00 +7°C° 0.1 mm 5 mps 750 mmHg 88%
    19:00 +7°C° 0.1 mm 5 mps 750 mmHg 87%
    20:00 +7°C° 0 mm 5 mps 750 mmHg 87%
    21:00 +7°C° 0 mm 4 mps 750 mmHg 86%
    22:00 +7°C° 0 mm 4 mps 750 mmHg 86%
    23:00 +6°C° 0 mm 4 mps 750 mmHg 86%

    30 April, Tuesday

    Time Temperature Precipitation Wind Pressure Humidity
    00:00 +6°C° 0 mm 4 mps 750 mmHg 87%
    01:00 +5°C° 0 mm 4 mps 750 mmHg 88%
    02:00 +5°C° 0 mm 4 mps 750 mmHg 86%
    03:00 +3°C° 0 mm 5 mps 750 mmHg 85%
    04:00 +3°C° 0 mm 5 mps 750 mmHg 84%
    05:00 +4°C° 0 mm 6 mps 750 mmHg 81%
    06:00 +4°C° 0 mm 6 mps 751 mmHg 78%
    07:00 +5°C° 0 mm 7 mps 751 mmHg 75%
    08:00 +5°C° 0 mm 7 mps 751 mmHg 74%
    09:00 +7°C° 0 mm 6 mps 751 mmHg 73%
    10:00 +7°C° 0 mm 6 mps 751 mmHg 72%
    11:00 +8°C° 0 mm 6 mps 751 mmHg 71%
    12:00 +9°C° 0 mm 6 mps 751 mmHg 70%
    13:00 +9°C° 0 mm 6 mps 751 mmHg 69%
    14:00 +9°C° 0 mm 6 mps 751 mmHg 70%
    15:00 +9°C° 0 mm 6 mps 751 mmHg 70%
    16:00 +9°C° 0 mm 6 mps 750 mmHg 71%
    17:00 +9°C° 0 mm 5 mps 750 mmHg 73%
    18:00 +8°C° 0 mm 4 mps 750 mmHg 75%
    19:00 +9°C° 0 mm 3 mps 750 mmHg 77%
    20:00 +9°C° 0 mm 3 mps 750 mmHg 76%
    21:00 +8°C° 0 mm 3 mps 751 mmHg 76%
    22:00 +8°C° 0 mm 3 mps 751 mmHg 75%
    23:00 +8°C° 0 mm 3 mps 750 mmHg 74%
    Show more